sat.trackr.live / text

‹ back to catalog

STARLINK-34264

NORAD 64277 · 2025-120X

PAYLOAD ACTIVE UNKNOWN

§ Identity

Operator
Country
US
Launch date
2025-06-04
Launch site
AFWTR
Launch vehicle
Mass (kg)
RCS (m²)

Purposes: comms

External: N2YO · Heavens-Above · Gunter

§ Orbital elements

Epoch: 2026-09-20T21:43:44.309280Z

Period
93.85 min
Inclination
53.1590°
Eccentricity
0.0000557
Mean motion
15.34396465 rev/d
Perigee alt
462.3 km
Apogee alt
463.1 km
Semi-major
6,840.9 km
B*
3.1189e-4
RAAN
287.8709°
Arg perigee
95.3815°
Mean anomaly
264.7252°
Rev number
7,377

§ Raw data

STARLINK-342641 64277U 25120X   26263.90537395  .00010175  00000+0  31189-3 0  99942 64277  53.1590 287.8709 0000557  95.3815 264.7252 15.34396465 73778

JSON: /api/v1/satellites/64277 · /tle

For live sub-satellite position, see the globe view (requires WebGL).

§ Visibility from observer

Set your observer location to see the next 7 days of passes ≥ 10°. The values pass through the URL so the page stays shareable.

No JS? Fill the form by hand. The geolocation button needs JavaScript.